sat.trackr.live / text

‹ back to catalog

STARLINK-34526

NORAD 64481 · 2025-133K

PAYLOAD ACTIVE UNKNOWN

§ Identity

Operator
Country
US
Launch date
2025-06-23
Launch site
AFETR
Launch vehicle
Mass (kg)
RCS (m²)

Purposes: comms

External: N2YO · Heavens-Above · Gunter

§ Orbital elements

Epoch: 2026-09-20T05:41:35.508192Z

Period
93.85 min
Inclination
53.1591°
Eccentricity
0.0001271
Mean motion
15.34402309 rev/d
Perigee alt
461.8 km
Apogee alt
463.6 km
Semi-major
6,840.8 km
B*
3.1229e-4
RAAN
291.0826°
Arg perigee
100.4857°
Mean anomaly
259.6289°
Rev number
7,089

§ Raw data

STARLINK-345261 64481U 25133K   26263.23721653  .00010190  00000+0  31229-3 0  99952 64481  53.1591 291.0826 0001271 100.4857 259.6289 15.34402309 70899

JSON: /api/v1/satellites/64481 · /tle

For live sub-satellite position, see the globe view (requires WebGL).

§ Visibility from observer

Set your observer location to see the next 7 days of passes ≥ 10°. The values pass through the URL so the page stays shareable.

No JS? Fill the form by hand. The geolocation button needs JavaScript.